Location: Woodhurst
(52.3667°N, 0.0667°W)
Time: 17:10:44
(UTC+00:00)

COSMOS 2406 - Pass Details

Date: 19 May 2025
Orbit: 845 x 859 km, 71.0° (Epoch: 12 June)

Event Time Altitude Azimuth Distance (km) Brightness Sun altitude
Exits shadow 23:41:08 15° 226° (SW) 2,164 5.0 -17.6°
Maximum altitude 23:45:55 63° 305° (NW) 950 3.6 -17.6°
Drops below altitude 10° 23:51:37 10° 27° (NNE) 2,494 6.6 -17.6°
Sets 23:54:07 0° 31° (NNE) 3,436 7.4 -17.6°
